Wind_Speed
13 13 13 13 15 13 12 12 11 11 11 11 11 11 10 9 8 8 7 7 7 6 5 4 3 3 2 2 3 5 5 4 4 4 4 5 5 5 6 7 6 6 6 6 5 5 5 5 5
13 13 13 14 14 11 12 12 12 11 11 11 11 11 10 10 9 8 7 7 6 5 5 4 3 3 3 2 3 4 5 4 5 5 5 6 6 6 6 6 6 6 6 6 5 5 4 5 4
12 13 13 14 13 11 11 11 11 11 11 12 11 11 10 9 8 7 7 6 6 5 5 5 4 4 3 3 3 4 4 4 5 5 6 6 6 6 6 6 6 5 5 5 5 4 4 5 4
12 12 13 13 11 11 12 12 11 11 11 12 12 11 10 9 8 7 7 6 6 5 5 5 5 4 3 3 2 3 3 3 4 5 6 7 7 6 6 6 6 5 5 4 4 4 4 4 4
12 13 13 11 11 11 11 11 11 12 11 11 11 10 9 8 8 7 7 6 6 6 5 5 5 4 4 3 3 3 4 3 4 6 6 7 6 7 6 6 6 5 5 4 4 3 4 4 4
12 12 11 10 10 11 11 10 11 11 11 11 11 10 9 9 8 8 7 7 7 6 6 5 5 3 3 4 3 4 4 4 5 6 7 7 7 6 6 6 6 5 5 4 2 2 4 4 3
11 11 10 10 10 10 10 10 10 11 11 10 10 10 9 9 9 8 7 7 7 6 6 5 5 3 3 3 2 4 5 5 6 6 6 7 7 6 5 5 5 4 4 3 3 3 2 2 2
10 11 10 9 9 9 9 9 10 10 10 10 9 9 9 9 9 8 7 7 6 6 5 5 5 4 4 3 4 4 5 5 6 6 6 7 6 5 5 5 4 3 2 2 2 2 1 2 1
10 11 8 8 9 9 9 9 9 10 10 9 9 9 8 8 8 8 7 6 5 6 5 6 5 4 4 3 4 4 5 5 5 6 6 6 5 5 5 4 4 3 2 2 1 1 1 1 1
9 9 8 8 9 9 9 9 9 9 10 9 9 8 7 8 8 7 7 7 6 6 6 6 6 5 4 4 4 5 5 4 5 5 5 4 4 4 4 4 3 3 2 1 0 1 2 2 2
7 8 8 8 9 8 8 8 8 8 9 9 9 8 8 7 7 7 7 7 6 6 6 6 5 5 5 5 5 4 4 5 5 5 5 5 4 4 4 4 3 2 1 0 1 1 2 2 2
7 8 8 8 9 8 8 8 7 7 7 7 8 7 8 8 8 8 7 7 7 6 7 6 6 6 6 5 5 5 5 5 5 5 5 4 3 3 3 2 2 2 1 1 1 1 2 1 2
7 6 7 7 8 8 8 8 7 6 6 6 6 7 6 7 7 7 7 7 7 7 7 7 8 8 7 6 6 6 5 6 5 5 4 4 3 3 3 2 1 1 1 1 1 1 2 1 1
5 5 5 5 6 6 7 7 7 6 5 5 5 6 6 6 6 6 6 6 6 6 6 7 7 7 7 7 7 6 5 5 4 4 4 4 4 3 3 2 1 1 1 1 1 2 2 2 2
3 3 4 4 4 5 5 7 7 6 6 5 5 5 5 5 5 5 5 6 6 6 6 6 6 7 7 7 8 6 5 5 4 4 4 3 3 3 3 2 3 2 2 2 2 2 3 2 2
1 2 2 3 3 3 4 5 5 6 6 6 5 5 5 4 5 5 5 5 5 5 5 5 5 6 6 6 7 6 5 4 4 4 3 3 2 2 2 2 2 2 2 2 2 3 3 3 3
1 1 1 3 2 2 3 4 4 5 6 6 5 5 5 4 3 3 4 4 4 4 4 4 4 5 5 5 5 5 5 4 4 3 3 2 2 2 1 1 1 1 2 3 3 3 3 3 3
4 4 4 4 3 2 2 3 3 4 5 5 5 5 5 4 3 3 3 3 2 2 3 3 4 4 5 4 4 4 4 3 3 3 2 2 2 1 1 1 1 2 2 3 3 4 4 3 3
5 4 5 6 5 4 3 3 4 4 4 4 4 4 4 4 4 3 3 3 2 2 2 2 3 4 4 4 3 3 3 3 2 1 2 2 1 1 1 1 2 2 1 2 3 4 5 5 4
7 6 6 7 6 5 5 4 4 4 5 4 5 5 4 4 5 4 4 3 3 3 3 2 3 3 4 4 3 3 3 3 2 1 1 2 2 2 2 2 2 2 2 2 3 4 5 6 5
9 8 8 8 8 8 7 6 6 6 5 5 5 6 6 5 6 6 5 5 4 4 4 4 3 4 4 4 4 3 3 3 2 2 2 2 3 3 3 3 3 3 3 4 5 5 6 6 6
10 10 10 9 8 8 8 7 7 7 6 6 6 7 7 7 7 6 6 6 5 5 4 4 4 4 4 4 4 4 4 4 3 3 4 4 4 5 5 4 4 4 5 6 6 7 8 8 8
12 12 10 9 9 8 8 7 7 8 7 7 7 7 7 7 7 7 7 7 6 6 5 5 5 5 5 5 5 5 5 5 4 4 5 5 5 5 5 5 6 6 6 7 8 9 9 9 9
14 12 11 10 9 9 9 7 7 9 9 8 8 7 7 7 7 7 7 7 7 7 6 6 6 6 7 7 6 6 5 5 5 5 5 6 6 6 6 6 7 7 7 8 8 9 9 9 10
15 13 11 11 10 10 11 9 9 9 9 9 8 8 8 8 8 8 8 8 7 7 7 7 7 7 8 8 8 7 7 7 7 7 7 8 8 8 8 7 8 8 8 8 9 9 9 10 11
16 15 13 12 11 11 12 10 9 10 10 10 9 9 9 9 9 8 8 9 8 8 9 9 9 9 9 9 9 9 8 8 8 8 9 9 9 9 8 9 9 9 9 9 9 9 10 11 12
18 17 15 14 13 12 12 11 10 11 11 10 10 10 10 10 9 9 9 9 10 10 10 10 10 10 10 10 10 10 10 10 10 10 10 11 10 10 10 10 10 10 10 10 10 11 11 12 13
20 18 17 15 13 13 13 11 10 11 11 11 11 11 11 10 10 10 10 10 11 11 12 12 12 12 12 12 12 12 12 12 12 11 11 12 12 12 12 12 12 12 12 12 12 12 13 14 14
20 20 18 16 16 13 13 12 12 13 12 12 12 12 12 12 12 11 11 12 13 13 13 13 14 14 14 14 14 14 14 14 14 13 13 13 13 13 12 13 13 13 14 14 14 15 15 15 14
22 21 20 18 18 16 14 14 15 14 13 14 14 14 14 14 14 13 13 13 14 14 15 15 15 16 16 16 16 16 15 15 16 15 14 13 13 14 14 13 13 14 15 15 16 16 16 16 15
Wind_Direction
76 75 75 78 76 76 77 75 75 76 75 78 81 83 85 87 91 94 94 91 95 98 101 108 112 119 103 121 146 151 151 157 162 159 160 162 161 161 168 175 178 177 177 178 176 172 181 187 194
78 75 75 76 78 75 75 74 73 73 72 77 80 81 81 81 82 87 87 86 90 93 97 104 108 109 100 117 135 146 152 159 165 159 158 159 158 159 160 168 175 174 177 182 181 180 186 196 206
77 74 75 77 80 78 75 75 72 71 71 73 77 79 76 76 78 79 82 83 85 88 95 101 105 105 102 114 131 140 149 154 158 159 157 155 156 159 160 161 167 169 172 173 182 185 196 200 211
77 76 74 76 74 75 75 73 69 67 66 66 70 74 72 74 76 76 78 78 79 83 91 93 103 102 96 101 109 131 145 150 155 162 153 149 151 152 154 157 160 159 157 163 183 180 188 189 196
77 76 70 69 66 68 70 69 66 63 63 63 63 67 67 69 71 73 77 76 75 80 90 89 92 92 85 85 93 126 137 127 137 150 152 149 152 154 151 154 155 158 157 158 165 178 192 196 202
78 74 75 72 68 67 68 68 65 63 63 61 62 64 65 65 68 72 76 74 75 81 87 86 91 87 82 78 83 107 118 120 124 145 154 154 154 154 155 155 156 162 166 162 164 173 192 194 208
81 78 74 71 66 64 64 66 67 65 64 63 62 62 65 66 63 68 74 75 73 76 76 76 91 85 73 72 92 102 107 117 123 136 147 151 152 156 157 159 163 167 174 173 166 168 193 209 222
75 77 72 68 63 62 63 65 67 67 65 65 65 61 62 64 63 67 74 79 75 68 63 67 76 76 72 75 111 107 110 118 128 138 141 147 151 151 158 156 159 160 162 162 174 182 197 231 238
77 79 75 70 64 63 65 65 64 65 62 60 66 68 64 64 64 68 73 75 76 72 72 75 71 76 75 91 106 114 120 127 134 138 138 142 145 147 153 147 148 151 148 153 184 214 243 259 282
76 79 76 71 66 65 64 62 61 61 58 54 58 62 66 64 64 68 66 68 73 76 79 81 76 75 76 93 104 107 122 125 126 128 128 135 138 146 147 147 148 147 147 157 219 281 275 268 275
76 78 72 64 60 60 62 61 59 58 55 54 55 58 63 61 62 62 64 66 67 74 80 77 77 69 68 78 98 113 122 112 120 124 125 128 134 133 134 139 135 130 113 55 304 298 296 273 276
78 78 73 63 58 60 62 61 58 57 53 52 53 55 58 59 59 62 64 66 64 71 80 77 71 66 64 69 89 103 114 106 111 116 114 120 125 132 138 133 128 103 50 350 295 296 303 297 286
83 79 73 64 60 59 57 54 50 49 47 49 48 53 54 57 57 62 63 64 70 72 76 70 70 67 61 65 81 96 105 102 100 111 108 109 113 118 120 115 100 94 56 17 340 302 283 314 46
88 83 71 60 57 56 54 46 43 40 31 33 39 48 53 56 59 58 57 65 76 75 68 63 66 62 61 65 76 86 100 109 110 103 105 109 109 103 95 96 87 74 68 55 15 17 30 42 30
84 77 60 54 46 45 47 42 38 31 23 23 28 36 47 53 55 49 50 65 70 70 63 61 62 59 59 62 68 77 92 106 107 110 110 115 110 101 95 94 83 72 64 53 30 20 36 30 14
58 51 28 17 27 35 40 43 38 29 26 24 20 23 33 43 53 50 52 62 68 68 65 63 58 57 56 56 59 63 79 95 97 107 116 111 106 105 102 93 66 49 38 29 7 5 8 1 357
303 303 310 326 348 16 30 39 27 29 25 19 16 16 18 26 37 45 46 50 59 63 65 59 47 45 47 49 49 48 56 70 81 89 103 103 102 102 92 66 37 23 20 15 4 12 13 14 6
251 263 270 286 305 324 346 5 4 14 12 7 3 1 4 8 16 22 25 25 27 40 51 50 42 34 35 36 38 40 50 63 70 67 65 81 92 93 50 10 346 344 1 2 7 15 14 1 345
239 252 259 268 290 312 326 335 341 349 352 346 343 339 343 346 351 355 358 0 350 356 17 26 21 18 21 25 28 30 38 50 59 51 44 45 44 17 337 327 331 322 349 16 9 4 0 352 343
242 247 259 271 285 301 312 319 320 323 326 323 323 322 318 324 329 327 329 327 328 321 334 344 339 351 360 3 6 9 18 18 15 0 355 2 355 335 329 330 330 326 327 332 333 338 339 336 330
247 247 252 263 279 293 304 313 312 318 319 314 310 310 307 310 315 318 320 318 314 311 314 320 322 325 335 343 350 349 350 350 344 330 314 308 311 309 302 303 309 310 302 303 309 313 315 324 325
249 249 252 264 279 289 296 299 305 309 310 314 310 305 305 304 302 305 306 308 306 304 305 308 315 312 313 323 331 328 328 328 325 315 306 301 305 302 298 297 299 299 295 295 301 307 310 315 320
248 252 257 265 275 281 289 291 294 301 307 308 307 303 305 304 299 295 296 298 298 297 301 301 300 300 297 304 316 320 323 317 309 304 302 300 304 306 300 293 292 294 296 297 299 302 307 312 311
250 255 262 267 271 275 277 280 283 289 295 298 302 304 302 306 302 293 291 293 294 294 295 296 293 294 293 290 294 303 311 311 308 302 301 300 299 299 297 292 289 290 294 295 296 297 302 308 311
248 253 261 267 271 275 276 274 271 277 285 291 293 296 299 301 301 294 288 293 293 291 290 290 288 289 291 286 284 289 294 299 303 300 300 300 299 294 291 289 290 290 291 293 295 296 299 304 308
245 245 245 252 263 272 278 275 274 276 281 289 291 292 295 299 297 292 287 290 289 288 286 283 284 286 292 287 279 281 286 289 293 296 297 296 295 294 292 289 289 291 293 294 296 300 301 304 305
241 243 245 250 257 260 266 271 272 277 281 285 287 288 290 293 292 290 288 285 287 286 283 281 279 282 287 286 279 276 278 283 287 291 292 293 292 291 291 289 288 290 294 296 298 300 300 302 302
241 242 243 245 250 259 267 273 274 275 278 279 281 284 288 289 287 288 287 281 280 279 280 279 277 279 279 281 278 275 274 277 282 288 292 291 290 288 290 289 288 289 292 294 294 294 295 297 298
240 241 241 244 246 253 262 268 267 270 270 273 277 280 284 287 288 288 289 281 277 277 278 278 276 278 278 278 277 273 270 273 279 282 286 286 286 285 287 289 288 289 288 289 291 292 294 296 296
239 240 241 244 249 249 252 262 266 269 269 269 271 275 279 282 285 285 286 283 281 280 280 281 278 277 277 277 275 273 270 270 272 276 281 283 283 284 287 288 286 289 290 288 290 290 294 295 296
Height
5904 5903 5903 5903 5903 5904 5903 5903 5901 5900 5899 5898 5897 5897 5896 5896 5896 5898 5895 5893 5893 5893 5892 5891 5891 5890 5890 5889 5889 5888 5888 5888 5888 5887 5887 5887 5887 5887 5887 5888 5889 5890 5890 5891 5892 5893 5893 5893 5894
5906 5905 5906 5906 5906 5906 5905 5904 5903 5902 5901 5899 5898 5898 5897 5896 5896 5896 5895 5894 5894 5893 5892 5892 5891 5891 5890 5890 5889 5889 5888 5888 5887 5887 5887 5887 5887 5887 5888 5888 5889 5890 5890 5891 5892 5893 5893 5893 5893
5908 5907 5908 5908 5908 5908 5907 5906 5904 5903 5902 5901 5900 5899 5898 5898 5897 5896 5896 5895 5895 5894 5893 5892 5892 5891 5891 5890 5889 5888 5888 5887 5887 5887 5887 5887 5887 5888 5888 5889 5889 5890 5890 5891 5891 5892 5892 5893 5893
5910 5910 5911 5911 5910 5909 5908 5907 5905 5904 5903 5902 5901 5900 5899 5899 5898 5897 5896 5896 5895 5895 5894 5893 5892 5892 5891 5890 5889 5889 5888 5887 5887 5887 5887 5887 5888 5888 5889 5889 5890 5890 5890 5891 5891 5892 5892 5892 5892
5912 5913 5914 5913 5912 5911 5910 5908 5907 5906 5905 5904 5903 5902 5900 5900 5899 5898 5897 5897 5896 5895 5894 5894 5893 5892 5891 5890 5890 5888 5887 5887 5886 5887 5888 5888 5889 5889 5889 5890 5890 5891 5891 5891 5891 5892 5892 5892 5892
5915 5916 5917 5915 5914 5913 5911 5910 5909 5908 5907 5905 5904 5903 5902 5901 5900 5899 5898 5898 5897 5896 5895 5894 5894 5893 5892 5891 5890 5889 5888 5888 5887 5888 5889 5889 5889 5890 5890 5890 5890 5891 5891 5891 5892 5892 5892 5892 5892
5917 5917 5917 5917 5916 5914 5913 5912 5910 5909 5908 5907 5906 5905 5903 5902 5901 5900 5899 5899 5898 5897 5896 5895 5894 5894 5893 5892 5891 5890 5889 5889 5888 5889 5889 5890 5890 5890 5891 5891 5891 5891 5891 5891 5891 5892 5891 5891 5891
5918 5920 5919 5918 5917 5916 5915 5913 5912 5911 5910 5909 5907 5906 5905 5904 5902 5901 5901 5900 5899 5898 5897 5896 5895 5894 5893 5892 5891 5891 5890 5890 5889 5889 5889 5890 5890 5891 5891 5891 5891 5891 5891 5891 5891 5891 5891 5891 5890
5920 5922 5921 5920 5919 5918 5916 5915 5914 5912 5911 5910 5908 5907 5906 5905 5903 5902 5901 5900 5899 5898 5898 5897 5896 5895 5894 5893 5892 5891 5891 5891 5890 5890 5890 5890 5891 5891 5892 5892 5892 5892 5891 5891 5891 5891 5890 5890 5890
5922 5923 5922 5921 5920 5918 5917 5916 5915 5914 5912 5911 5910 5908 5907 5906 5905 5903 5902 5901 5900 5899 5898 5898 5897 5896 5895 5894 5893 5892 5892 5892 5891 5891 5891 5891 5892 5892 5892 5892 5892 5892 5892 5891 5891 5891 5890 5889 5889
5923 5923 5922 5921 5920 5919 5918 5917 5916 5915 5914 5912 5911 5910 5908 5907 5906 5904 5903 5902 5901 5900 5899 5899 5898 5897 5896 5895 5894 5893 5892 5892 5892 5892 5892 5892 5892 5892 5892 5892 5892 5892 5892 5892 5891 5891 5890 5889 5889
5925 5924 5923 5922 5921 5919 5919 5918 5917 5916 5915 5914 5912 5911 5909 5908 5907 5906 5905 5904 5902 5901 5901 5900 5899 5898 5897 5896 5895 5894 5893 5893 5893 5893 5893 5893 5893 5893 5893 5893 5893 5893 5892 5892 5891 5890 5890 5889 5888
5926 5925 5924 5924 5922 5921 5920 5919 5918 5917 5916 5915 5913 5912 5911 5909 5908 5907 5906 5905 5904 5903 5902 5901 5900 5899 5898 5897 5895 5895 5894 5894 5894 5894 5894 5893 5893 5893 5893 5893 5893 5893 5892 5892 5891 5890 5890 5889 5888
5927 5926 5925 5924 5923 5922 5921 5920 5919 5918 5917 5916 5914 5913 5912 5911 5910 5909 5907 5906 5905 5904 5903 5902 5901 5900 5899 5898 5896 5895 5895 5895 5895 5895 5894 5894 5894 5894 5893 5894 5893 5893 5892 5892 5891 5891 5890 5889 5889
5927 5927 5927 5925 5924 5923 5922 5921 5920 5919 5918 5916 5915 5914 5913 5912 5911 5910 5908 5907 5906 5906 5904 5904 5903 5901 5900 5899 5897 5896 5895 5895 5895 5895 5895 5895 5895 5894 5894 5894 5894 5893 5892 5892 5891 5890 5890 5889 5888
5928 5928 5928 5927 5925 5924 5924 5923 5921 5920 5919 5917 5916 5915 5914 5913 5912 5911 5910 5908 5908 5907 5906 5905 5904 5903 5901 5900 5899 5898 5897 5897 5896 5896 5896 5896 5895 5895 5895 5895 5894 5893 5893 5892 5891 5890 5889 5889 5888
5928 5928 5928 5927 5925 5924 5924 5923 5922 5920 5919 5918 5917 5916 5915 5914 5913 5912 5910 5909 5908 5907 5906 5906 5905 5904 5903 5901 5900 5899 5898 5898 5897 5897 5896 5896 5896 5896 5895 5895 5894 5893 5893 5892 5891 5890 5889 5888 5887
5928 5928 5927 5927 5925 5924 5924 5923 5922 5921 5920 5918 5917 5916 5915 5914 5913 5912 5911 5910 5909 5908 5907 5906 5906 5905 5903 5902 5901 5900 5899 5898 5898 5898 5897 5897 5896 5896 5895 5895 5894 5893 5893 5892 5891 5890 5889 5888 5887
5926 5927 5926 5926 5925 5924 5924 5923 5922 5921 5919 5918 5917 5916 5915 5914 5913 5913 5911 5910 5909 5909 5908 5907 5906 5905 5904 5903 5902 5901 5900 5899 5898 5898 5897 5897 5896 5896 5895 5894 5894 5893 5893 5892 5891 5890 5889 5887 5886
5925 5925 5925 5925 5924 5924 5923 5923 5922 5920 5919 5918 5917 5916 5915 5914 5913 5912 5911 5910 5910 5909 5908 5907 5906 5905 5904 5903 5902 5901 5900 5899 5898 5898 5897 5897 5896 5895 5895 5894 5893 5893 5892 5891 5890 5890 5889 5887 5886
5923 5924 5923 5923 5923 5922 5923 5923 5921 5920 5919 5918 5916 5915 5914 5914 5913 5912 5911 5910 5909 5909 5908 5907 5906 5905 5904 5903 5902 5901 5900 5899 5899 5898 5897 5897 5896 5895 5894 5894 5893 5892 5892 5891 5890 5889 5888 5887 5885
5921 5921 5921 5921 5921 5922 5922 5923 5921 5919 5918 5917 5916 5914 5913 5913 5912 5911 5910 5909 5909 5908 5907 5907 5906 5905 5904 5904 5903 5901 5900 5899 5898 5897 5897 5896 5895 5894 5893 5893 5892 5892 5891 5890 5889 5888 5887 5885 5884
5917 5918 5919 5919 5919 5920 5920 5921 5921 5918 5917 5916 5914 5913 5912 5912 5911 5910 5909 5908 5907 5907 5906 5906 5905 5905 5904 5903 5902 5901 5900 5899 5898 5897 5896 5895 5894 5893 5892 5892 5891 5890 5889 5888 5888 5886 5885 5884 5882
5914 5915 5916 5917 5918 5919 5918 5919 5919 5917 5915 5914 5913 5912 5911 5910 5909 5908 5908 5907 5906 5906 5905 5905 5904 5904 5903 5902 5901 5900 5899 5898 5897 5896 5895 5894 5893 5892 5891 5890 5889 5888 5887 5886 5886 5884 5883 5882 5881
5911 5914 5916 5916 5917 5917 5916 5915 5916 5914 5913 5912 5911 5910 5909 5908 5907 5907 5906 5905 5905 5904 5904 5903 5903 5902 5902 5901 5900 5899 5898 5897 5896 5895 5894 5893 5892 5891 5889 5888 5887 5886 5885 5884 5883 5882 5881 5880 5879
5908 5910 5913 5915 5916 5916 5913 5912 5913 5911 5910 5909 5909 5908 5907 5907 5906 5905 5904 5904 5903 5902 5902 5901 5901 5900 5900 5899 5898 5897 5896 5896 5895 5894 5892 5891 5890 5889 5888 5887 5885 5884 5883 5882 5881 5880 5879 5877 5876
5904 5905 5908 5910 5911 5911 5912 5910 5909 5908 5907 5907 5906 5906 5905 5904 5904 5903 5902 5901 5901 5900 5899 5899 5898 5898 5897 5897 5896 5895 5894 5893 5893 5892 5890 5889 5888 5887 5886 5885 5883 5882 5881 5879 5878 5877 5876 5874 5872
5900 5902 5903 5905 5906 5908 5909 5908 5908 5905 5904 5904 5904 5903 5902 5902 5901 5900 5900 5899 5898 5897 5897 5896 5895 5895 5894 5894 5893 5892 5892 5891 5890 5889 5888 5887 5886 5884 5883 5882 5881 5879 5878 5877 5876 5874 5872 5871 5869
5895 5897 5898 5901 5902 5904 5906 5907 5903 5902 5901 5901 5901 5900 5899 5899 5898 5897 5897 5896 5895 5894 5893 5893 5892 5892 5891 5890 5889 5889 5888 5888 5887 5886 5885 5884 5882 5881 5880 5879 5878 5876 5875 5874 5872 5871 5869 5867 5866
5889 5891 5894 5896 5896 5898 5900 5903 5898 5898 5898 5897 5897 5897 5896 5895 5895 5894 5893 5892 5891 5891 5890 5890 5889 5888 5887 5886 5886 5885 5884 5884 5884 5883 5882 5881 5880 5878 5877 5875 5874 5872 5871 5869 5868 5867 5865 5864 5862